User: anonymous   Login
Location: Belvedere Heights
(33.9836°N, 117.3109°W)
Time: 06:15:25
(UTC+00:00)
Language:

RS-44 - Orbit

View from above orbital plane
View from above orbital plane
View from above satellite
View from above satellite

Ground track
Ground track

The orbit data is extracted from the following two-line orbital elements,

1 44909U 19096E   24141.43619427  .00000036  00000-0  93334-4 0  9994
2 44909  82.5181 123.2156 0218521 115.9400 246.4397 12.79729946205426
Epoch (UTC): 20 May 2024 10:28:07
Eccentricity: 0.0218521
inclination: 82.5181°
perigee height: 1174 km
apogee height: 1511 km
right ascension of ascending node: 123.2156°
argument of perigee: 115.9400°
revolutions per day: 12.79729946
mean anomaly at epoch: 246.4397°
orbit number at epoch: 20542

The dashed part of the orbit path shows where the satellite is in the earth's shadow,  

DLR